Theta_e
316 317 315 314 314 312 312 313 314 314 313 313 314 314 312 311 311 313 312 312 312 315
316 315 314 314 314 312 312 316 312 312 310 310 310 312 311 309 309 309 311 313 313 312
315 315 314 313 313 312 311 310 309 308 307 307 307 308 304 303 305 307 310 311 309 309
316 315 314 312 312 311 309 308 308 308 307 306 305 305 304 304 306 308 306 305 305 305
316 315 312 312 310 309 307 307 307 307 306 306 306 305 304 304 307 304 302 302 302 302
314 313 311 310 309 308 307 306 305 305 305 305 306 305 305 305 304 303 302 302 301 301
314 312 310 309 308 307 306 304 304 304 304 304 304 304 303 303 301 300 301 301 301 301
312 310 309 308 307 306 305 305 304 303 302 301 303 304 299 299 298 298 298 298 300 301
311 309 308 306 305 303 303 303 301 299 300 298 303 302 302 300 295 296 296 295 297 299
308 306 303 302 302 301 300 298 297 297 297 296 297 300 300 301 296 295 295 295 295 298
303 302 301 299 298 298 298 296 295 295 296 295 297 300 299 300 296 296 298 295 296 297
301 301 297 296 296 296 294 293 293 294 294 293 293 297 298 298 297 299 298 299 297 298
299 298 295 295 294 292 292 292 293 293 293 296 296 298 297 298 299 298 297 297 297 298
297 295 294 293 292 291 291 291 290 291 293 296 297 297 297 298 298 297 296 296 296 296
Wind_Speed
9 7 6 6 5 4 4 3 3 5 5 6 6 5 5 3 4 5 5 6 5 4
7 9 8 7 6 4 4 4 6 7 7 7 7 6 6 4 5 5 5 5 5 3
7 7 7 7 7 7 6 6 6 6 6 7 6 6 6 4 4 6 4 4 6 5
6 6 7 6 6 6 6 6 6 5 5 6 6 6 6 6 5 5 5 5 6 6
7 7 7 6 7 6 6 4 4 4 5 5 6 7 7 6 4 5 6 5 6 6
8 8 7 7 7 6 6 4 4 5 5 5 6 6 6 4 4 5 5 5 6 7
10 9 7 7 7 7 5 5 4 4 4 5 5 5 5 5 4 5 5 6 6 7
9 8 8 6 6 6 5 5 5 4 5 5 4 3 3 4 5 5 6 5 6 8
7 7 7 7 5 4 5 5 5 5 4 5 3 3 4 3 4 5 5 6 8 8
6 7 6 6 7 6 5 5 5 4 4 5 5 2 6 8 4 6 6 6 6 8
10 9 7 6 6 6 5 5 3 4 5 3 3 6 8 10 6 6 8 6 5 5
8 6 6 6 6 5 5 3 3 3 5 5 6 8 10 10 8 6 8 4 3 3
6 6 6 5 4 1 2 0 2 4 5 8 6 8 12 9 4 5 5 8 3 4
5 5 4 2 2 2 3 4 4 4 5 7 6 7 9 8 3 4 4 5 6 6
Wind_Direction
108 108 106 118 120 108 104 102 67 57 45 30 25 13 19 22 7 4 354 4 354 328
101 109 117 112 106 103 85 72 51 43 30 13 11 16 12 9 355 1 354 11 19 357
121 117 115 105 94 84 72 62 51 37 26 15 11 6 3 351 351 17 17 16 16 11
122 116 101 100 99 95 79 59 47 36 25 14 7 357 355 348 8 49 35 19 17 0
147 128 119 115 108 101 91 70 67 41 26 12 360 345 347 341 29 28 18 4 6 349
150 139 139 135 130 120 112 90 59 55 37 13 357 343 340 41 21 15 11 359 347 323
162 155 146 148 141 134 138 112 95 71 54 30 360 8 16 12 13 357 357 340 317 304
154 149 137 151 143 137 119 111 105 81 46 30 1 17 8 7 353 334 320 316 320 310
139 129 137 140 127 114 106 96 77 52 41 15 0 310 12 359 324 308 308 327 324 306
102 91 85 77 72 58 53 71 57 33 14 1 353 59 332 310 294 312 298 321 310 315
87 85 79 70 70 63 64 52 19 351 351 353 318 295 297 295 276 278 298 295 310 317
73 77 77 68 72 75 70 45 10 324 303 289 286 284 298 299 292 277 293 293 294 321
84 70 82 97 93 116 111 196 294 302 294 274 280 305 294 290 281 279 289 297 279 283
36 62 67 65 47 13 349 335 314 307 301 298 298 293 291 283 263 279 286 293 296 290